Retour au catalogue

THOR ABLESTAR DEB

ActifLEO
NORAD 6747·DEBRIS·🇺🇸 United States

Lancé Jun 29, 1961 depuis Cape Canaveral Space Force Station

Loading…

Prochains Passages (prochaines 24 heures)

TLE

FraisSource: Space-Track

Époque: Sep 14, 2026, 11:30 UTC

1 06747U 61015KM  26257.47985016  .00000144  00000-0  15230-3 0  9992
2 06747  66.5988 284.7377 0136322 151.4664 209.3966 13.95262314304031

Suivez THOR ABLESTAR DEB en temps réel avec AllMySat

Download on the App Store